When you browse on this site, cookies collect data to enhance your experience and personalize the content and advertising you see.
Visit our Privacy Policy to learn more. By continuing to use the site, you agree to this use of cookies and data.
  • Em Portugal
  • Lista de países
  • Para 7 dias
  • Temperatura da água
  • Mapas de satélite
  • Mapa do tempo
  • Widgets de tempo
  • user-avatar
    Iniciar Sessão

    Previsão horária em Grigorovichi

    Hoje, 21 Abril, Domingo

    Tempo Temperatura Precipitação Vento Pressão Humidade
    00:00 +7°C° 0 mm 1 m/s 743 mmHg 77%
    01:00 +5°C° 0 mm 2 m/s 743 mmHg 79%
    02:00 +4°C° 0 mm 3 m/s 743 mmHg 84%
    03:00 +4°C° 0 mm 3 m/s 743 mmHg 85%
    04:00 +3°C° 0 mm 3 m/s 743 mmHg 86%
    05:00 +3°C° 0 mm 3 m/s 742 mmHg 87%
    06:00 +4°C° 0 mm 4 m/s 742 mmHg 82%
    07:00 +6°C° 0 mm 4 m/s 743 mmHg 77%
    08:00 +7°C° 0 mm 5 m/s 743 mmHg 72%
    09:00 +8°C° 0 mm 5 m/s 743 mmHg 67%
    10:00 +9°C° 0 mm 6 m/s 743 mmHg 63%
    11:00 +11°C° 0 mm 6 m/s 743 mmHg 59%
    12:00 +13°C° 0.2 mm 6 m/s 743 mmHg 54%
    13:00 +14°C° 0.2 mm 5 m/s 743 mmHg 49%
    14:00 +15°C° 0 mm 5 m/s 744 mmHg 45%
    15:00 +15°C° 0 mm 4 m/s 744 mmHg 45%
    16:00 +15°C° 0 mm 4 m/s 744 mmHg 44%
    17:00 +15°C° 0 mm 4 m/s 744 mmHg 43%
    18:00 +13°C° 0 mm 4 m/s 744 mmHg 50%
    19:00 +11°C° 0 mm 3 m/s 744 mmHg 57%
    20:00 +9°C° 0 mm 3 m/s 745 mmHg 64%
    21:00 +8°C° 0 mm 3 m/s 745 mmHg 66%
    22:00 +8°C° 0 mm 3 m/s 745 mmHg 68%
    23:00 +7°C° 0 mm 3 m/s 746 mmHg 70%

    Amanhã, 22 Abril, Segunda-feira

    Tempo Temperatura Precipitação Vento Pressão Humidade
    00:00 +7°C° 0 mm 2 m/s 746 mmHg 71%
    01:00 +6°C° 0 mm 2 m/s 746 mmHg 72%
    02:00 +6°C° 0 mm 2 m/s 747 mmHg 73%
    03:00 +5°C° 0 mm 2 m/s 747 mmHg 73%
    04:00 +5°C° 0 mm 2 m/s 747 mmHg 74%
    05:00 +5°C° 0 mm 2 m/s 747 mmHg 75%
    06:00 +7°C° 0 mm 2 m/s 748 mmHg 69%
    07:00 +9°C° 0 mm 2 m/s 748 mmHg 62%
    08:00 +10°C° 0 mm 2 m/s 749 mmHg 56%
    09:00 +13°C° 0 mm 2 m/s 749 mmHg 48%
    10:00 +13°C° 0 mm 3 m/s 749 mmHg 41%
    11:00 +16°C° 0 mm 3 m/s 749 mmHg 33%
    12:00 +16°C° 0 mm 3 m/s 749 mmHg 32%
    13:00 +16°C° 0 mm 3 m/s 749 mmHg 32%
    14:00 +17°C° 0 mm 3 m/s 749 mmHg 31%
    15:00 +17°C° 0 mm 3 m/s 749 mmHg 33%
    16:00 +16°C° 0 mm 3 m/s 749 mmHg 36%
    17:00 +16°C° 0 mm 3 m/s 749 mmHg 38%
    18:00 +15°C° 0 mm 2 m/s 749 mmHg 42%
    19:00 +13°C° 0 mm 2 m/s 749 mmHg 47%
    20:00 +12°C° 0 mm 2 m/s 749 mmHg 51%
    21:00 +11°C° 0 mm 1 m/s 749 mmHg 52%
    22:00 +10°C° 0 mm 1 m/s 749 mmHg 54%
    23:00 +9°C° 0 mm 1 m/s 750 mmHg 56%

    Depois de amanhã, 23 Abril, Terça-feira

    Tempo Temperatura Precipitação Vento Pressão Humidade
    00:00 +9°C° 0 mm 1 m/s 750 mmHg 57%
    01:00 +8°C° 0 mm 1 m/s 750 mmHg 58%
    02:00 +8°C° 0 mm 1 m/s 750 mmHg 59%
    03:00 +7°C° 0 mm 1 m/s 750 mmHg 59%
    04:00 +7°C° 0 mm 1 m/s 750 mmHg 60%
    05:00 +7°C° 0 mm 1 m/s 750 mmHg 61%
    06:00 +9°C° 0 mm 1 m/s 751 mmHg 56%
    07:00 +11°C° 0 mm 1 m/s 751 mmHg 52%
    08:00 +13°C° 0 mm 1 m/s 751 mmHg 47%
    09:00 +14°C° 0 mm 1 m/s 751 mmHg 43%
    10:00 +15°C° 0 mm 2 m/s 751 mmHg 39%
    11:00 +17°C° 0 mm 2 m/s 751 mmHg 34%
    12:00 +17°C° 0 mm 2 m/s 751 mmHg 34%
    13:00 +17°C° 0 mm 2 m/s 751 mmHg 34%
    14:00 +18°C° 0 mm 2 m/s 750 mmHg 34%
    15:00 +17°C° 0 mm 3 m/s 750 mmHg 36%
    16:00 +17°C° 0 mm 3 m/s 750 mmHg 38%
    17:00 +17°C° 0 mm 3 m/s 749 mmHg 41%
    18:00 +15°C° 0 mm 2 m/s 749 mmHg 46%
    19:00 +13°C° 0 mm 2 m/s 749 mmHg 52%
    20:00 +12°C° 0 mm 2 m/s 749 mmHg 57%
    21:00 +10°C° 0 mm 2 m/s 749 mmHg 58%
    22:00 +9°C° 0 mm 2 m/s 749 mmHg 59%
    23:00 +9°C° 0 mm 2 m/s 750 mmHg 60%

    24 Abril, Quarta-feira

    Tempo Temperatura Precipitação Vento Pressão Humidade
    00:00 +8°C° 0 mm 2 m/s 750 mmHg 61%
    01:00 +8°C° 0 mm 2 m/s 750 mmHg 61%
    02:00 +7°C° 0 mm 2 m/s 750 mmHg 61%
    03:00 +7°C° 0 mm 2 m/s 750 mmHg 62%
    04:00 +8°C° 0 mm 1 m/s 750 mmHg 62%
    05:00 +7°C° 0 mm 1 m/s 750 mmHg 63%
    06:00 +9°C° 0 mm 1 m/s 750 mmHg 59%
    07:00 +10°C° 0 mm 2 m/s 750 mmHg 55%
    08:00 +13°C° 0 mm 2 m/s 751 mmHg 50%
    09:00 +15°C° 0 mm 2 m/s 750 mmHg 46%
    10:00 +16°C° 0 mm 3 m/s 750 mmHg 41%
    11:00 +18°C° 0 mm 4 m/s 750 mmHg 36%
    12:00 +18°C° 0 mm 4 m/s 750 mmHg 36%
    13:00 +18°C° 0 mm 4 m/s 750 mmHg 36%
    14:00 +19°C° 0 mm 4 m/s 750 mmHg 36%
    15:00 +19°C° 0 mm 4 m/s 749 mmHg 37%
    16:00 +18°C° 0 mm 4 m/s 749 mmHg 39%
    17:00 +18°C° 0 mm 3 m/s 749 mmHg 40%
    18:00 +16°C° 0 mm 3 m/s 749 mmHg 46%
    19:00 +14°C° 0 mm 3 m/s 749 mmHg 52%
    20:00 +13°C° 0 mm 2 m/s 749 mmHg 58%
    21:00 +12°C° 0 mm 2 m/s 749 mmHg 60%
    22:00 +10°C° 0 mm 2 m/s 749 mmHg 61%
    23:00 +10°C° 0 mm 2 m/s 749 mmHg 62%

    25 Abril, Quinta-feira

    Tempo Temperatura Precipitação Vento Pressão Humidade
    00:00 +9°C° 0 mm 2 m/s 749 mmHg 64%
    01:00 +9°C° 0 mm 2 m/s 749 mmHg 65%
    02:00 +8°C° 0 mm 2 m/s 749 mmHg 67%
    03:00 +8°C° 0 mm 2 m/s 749 mmHg 68%
    04:00 +8°C° 0 mm 2 m/s 749 mmHg 69%
    05:00 +7°C° 0 mm 2 m/s 749 mmHg 71%
    06:00 +9°C° 0 mm 3 m/s 749 mmHg 66%
    07:00 +11°C° 0 mm 3 m/s 749 mmHg 61%
    08:00 +13°C° 0 mm 3 m/s 749 mmHg 56%
    09:00 +14°C° 0 mm 4 m/s 749 mmHg 51%
    10:00 +17°C° 0 mm 4 m/s 749 mmHg 46%
    11:00 +17°C° 0 mm 5 m/s 749 mmHg 40%
    12:00 +19°C° 0 mm 5 m/s 749 mmHg 39%
    13:00 +20°C° 0 mm 5 m/s 748 mmHg 38%
    14:00 +20°C° 0 mm 5 m/s 748 mmHg 37%
    15:00 +20°C° 0 mm 4 m/s 747 mmHg 39%
    16:00 +20°C° 0 mm 4 m/s 747 mmHg 40%
    17:00 +20°C° 0 mm 4 m/s 747 mmHg 42%
    18:00 +18°C° 0 mm 3 m/s 746 mmHg 48%
    19:00 +16°C° 0 mm 3 m/s 746 mmHg 55%
    20:00 +13°C° 0 mm 3 m/s 746 mmHg 61%
    21:00 +12°C° 0 mm 3 m/s 746 mmHg 61%
    22:00 +12°C° 0 mm 3 m/s 745 mmHg 62%
    23:00 +11°C° 0 mm 3 m/s 745 mmHg 62%

    26 Abril, Sexta-feira

    Tempo Temperatura Precipitação Vento Pressão Humidade
    00:00 +11°C° 0 mm 3 m/s 745 mmHg 65%
    01:00 +10°C° 0 mm 3 m/s 745 mmHg 67%
    02:00 +10°C° 0 mm 3 m/s 745 mmHg 70%
    03:00 +9°C° 0 mm 3 m/s 744 mmHg 71%
    04:00 +9°C° 0 mm 3 m/s 744 mmHg 72%
    05:00 +9°C° 0 mm 3 m/s 744 mmHg 73%
    06:00 +11°C° 0 mm 4 m/s 744 mmHg 67%
    07:00 +12°C° 0 mm 4 m/s 743 mmHg 61%
    08:00 +14°C° 0 mm 5 m/s 743 mmHg 55%
    09:00 +16°C° 0 mm 5 m/s 743 mmHg 50%
    10:00 +17°C° 0 mm 6 m/s 743 mmHg 45%
    11:00 +19°C° 0 mm 6 m/s 742 mmHg 39%
    12:00 +20°C° 0 mm 6 m/s 742 mmHg 38%
    13:00 +21°C° 0 mm 6 m/s 742 mmHg 37%
    14:00 +22°C° 0 mm 5 m/s 741 mmHg 36%
    15:00 +21°C° 0 mm 5 m/s 741 mmHg 38%
    16:00 +21°C° 0 mm 4 m/s 741 mmHg 40%
    17:00 +21°C° 0 mm 3 m/s 740 mmHg 41%
    18:00 +19°C° 0 mm 3 m/s 740 mmHg 49%
    19:00 +17°C° 0 mm 3 m/s 740 mmHg 56%
    20:00 +15°C° 0 mm 2 m/s 740 mmHg 64%
    21:00 +14°C° 0.1 mm 2 m/s 740 mmHg 68%
    22:00 +14°C° 0.1 mm 2 m/s 740 mmHg 72%
    23:00 +13°C° 0.1 mm 2 m/s 740 mmHg 76%
    Mostrar mais